2024-149AG

Last updated on Mon Sep 16 2024 00:02:03 GMT+0000 (Coordinated Universal Time)

1 60498U 24149AG 24259.09695942 .00018854 00000+0 91163-3 0 9991 2 60498 97.4390 334.1912 0006330 36.0189 324.1471 15.18640271 4442
UTC large
Height (km)
Speed (km/s)
/
Latitude / Longitude
Inclination (degrees)
Orbital Period (minutes)
Azimuth
Elevation
Range (km)
Doppler Factor

Next 0 passes for location: London (51.5072 / 0.1276)

Sorry there are no passes over London.